Location: Lenomiya Observatory
(32.9017°N, 111.7482°W)
Time: 08:59:55
(UTC-07:00)

N. Korean satellite - Visible Passes

Search period start: 15 December 2018 00:00
Search period end: 25 December 2018 00:00
Orbit: 456 x 511 km, 97.2° (Epoch: 14 December)

Date Brightness Start Highest point End Pass type
(mag) Time Alt. Az. Time Alt. Az. Time Alt. Az.
15 Dec 6.8 06:35:04 10° NNE 06:38:40 74° E 06:42:18 10° S visible
15 Dec 9.0 18:40:33 10° SSW 18:43:23 24° W 18:46:12 10° NW visible
16 Dec 8.6 06:10:50 10° NNE 06:14:05 31° E 06:17:22 10° SSE visible
16 Dec 7.2 18:15:24 10° S 18:18:45 57° W 18:22:08 10° NNW visible
17 Dec 9.9 05:47:17 10° ENE 05:49:25 15° E 05:51:34 10° SE visible
17 Dec 6.5 17:50:51 10° SSE 17:54:11 56° ENE 17:57:34 10° N visible
18 Dec 6.7 06:54:47 10° N 06:58:20 54° WNW 07:01:56 10° SSW visible
18 Dec 9.9 19:01:34 10° WSW 19:03:09 13° W 19:04:44 10° WNW visible
19 Dec 7.1 06:30:11 10° NNE 06:33:48 63° E 06:37:27 10° S visible
19 Dec 8.7 18:35:29 10° SSW 18:38:27 28° W 18:41:26 10° NW visible
20 Dec 8.9 06:06:02 10° NE 06:09:11 27° E 06:12:23 10° SSE visible
20 Dec 6.8 18:10:25 10° S 18:13:49 68° W 18:17:15 10° NNW visible
21 Dec 10.0 05:42:43 10° ENE 05:44:31 13° E 05:46:17 10° ESE visible
22 Dec 6.6 06:49:49 10° N 06:53:27 64° WNW 06:57:07 10° SSW visible
22 Dec 9.8 18:56:10 10° SW 18:58:10 15° W 19:00:12 10° WNW visible
23 Dec 7.5 06:25:17 10° NNE 06:28:53 53° E 06:32:31 10° S visible
23 Dec 8.4 18:30:22 10° SSW 18:33:29 32° W 18:36:37 10° NNW visible
24 Dec 9.2 06:01:13 10° NE 06:04:16 24° E 06:07:18 10° SSE visible
24 Dec 6.5 18:05:26 10° S 18:08:51 82° WSW 18:12:19 10° NNW visible
